Simultaneous Nadir Overpasses (SNOs) Predictions

Prediction of SNOs between AQUA and NPP Satellite Orbit:

Table of predicted SNOs for the next 14.0 days since TLE Epoch: 2/24/2012
Index Date (AQUA) Time (AQUA) Lat,Lon (AQUA) SZA (AQUA ) Date (NPP) Time (NPP) Lat,Lon (NPP) SZA (NPP ) Distance(km) Time Diff (sec)
1 02/25/2012 22:38:00 -76.77, -97.95 74.19 02/25/2012 22:37:32 -76.77, -97.92 74.18 0.79 28
2 02/25/2012 23:27:09 77.55, 72.66 104.86 02/25/2012 23:27:58 77.55, 72.69 104.81 0.75 49
3 02/28/2012 14:08:55 64.20,-171.08 117.85 02/28/2012 14:07:42 64.41,-172.34 118.16 64.68 73
4 02/28/2012 14:54:26 -76.92, 18.46 75.38 02/28/2012 14:54:25 -76.91, 18.37 75.35 2.38 1
5 02/28/2012 15:42:13 80.77,-149.46 99.06 02/28/2012 15:43:26 80.55,-148.57 98.88 29.67 73
6 03/02/2012 06:21:34 76.59, -34.44 104.00 03/02/2012 06:20:42 76.60, -34.37 104.03 1.97 52
7 03/02/2012 07:10:49 -77.18, 135.34 76.72 03/02/2012 07:11:15 -77.18, 135.24 76.72 2.68 26
8 03/04/2012 22:37:59 76.75, 81.98 102.78 03/04/2012 22:37:35 76.74, 81.93 102.82 1.37 24
9 03/04/2012 23:27:08 -77.61,-107.07 78.28 03/04/2012 23:28:01 -77.61,-107.07 78.32 0.18 53
10 03/07/2012 14:05:15 -76.05, 27.90 77.44 03/07/2012 14:04:02 -76.04, 27.81 77.36 2.61 73
11 03/07/2012 14:54:19 77.07,-160.96 101.35 03/07/2012 14:54:23 77.06,-161.03 101.36 1.86 4




NCC Satellite Simultaneous Nadir Overpasses (SNOs) Prediction Service
